#timestamp,LO_Frequency,Hit,StdDev 
1705946415.8,286047000.1,N
1705946435.6,286047000.0,N
1705946455.5,286047002.4,N
1705946475.3,286047000.3,N
1705946495.2,286047000.6,N
1705946515.9,286047002.8,N
1705946535.7,286046999.7,N
1705946555.6,286047000.7,N
1705946575.4,286047000.7,N
1705946595.2,286047002.7,N
1705946615.1,286047001.0,N
1705946616.0,286047001.0,N
1705946635.8,286046998.3,N
1705946655.7,286047000.8,N
1705946675.5,286046998.5,N
1705946695.3,286046998.9,N
1705946715.2,286046998.3,N
1705946735.0,286046998.3,N
1705946735.9,286046998.3,N
1705946755.8,286046998.1,N
1705946775.6,286047000.5,N
1705946795.4,286047001.6,N
1705946815.3,286046999.8,N
1705946835.1,286047000.3,N
1705946855.8,286047000.4,N
1705946875.7,286046999.8,N
1705946895.5,286046998.1,N
1705946915.4,286047000.2,N
1705946935.2,286047002.8,N
1705946955.0,286047000.7,N
1705946955.9,286047000.7,N
1705946975.8,286047000.0,N
1705946995.6,286046999.8,N
1705947015.4,286047002.0,N
1705947035.3,286047000.1,N
1705947055.1,286047002.2,N
1705947075.9,286047000.0,N
1705947095.7,286046998.1,N
1705947115.5,286046999.9,N
1705947135.4,286046998.6,N
1705947155.2,286046999.0,N
1705947175.0,286046996.6,N
1705947176.0,286046996.6,N
1705947195.8,286046996.6,N
1705947215.6,286046996.9,N
1705947235.5,286046999.2,N
1705947255.3,286046999.5,N
1705947275.1,286046998.5,N
1705947295.9,286046998.6,N
1705947315.7,286047001.2,N
1705947335.6,286046998.4,N
1705947355.4,286046998.5,N
1705947375.2,286046998.8,N
1705947395.1,286047000.0,N
1705947396.0,286047000.0,N
1705947415.8,286047000.5,N
1705947435.6,286047000.8,N
1705947455.5,286047000.1,N
1705947475.3,286047002.4,N
1705947495.2,286047000.1,N
1705947515.9,286046999.8,N
1705947535.7,286046999.7,N
1705947555.6,286047000.9,N
1705947575.4,286047002.7,N
1705947595.2,286047001.0,N
1705947615.1,286046999.1,N
1705947616.0,286046999.1,N
1705947635.8,286046998.4,N
1705947655.7,286046998.4,N
1705947675.5,286046998.1,N
1705947695.3,286047000.2,N
1705947715.2,286047002.4,N
1705947735.0,286046998.3,N
1705947735.9,286046998.3,N
1705947755.8,286047000.6,N
1705947775.6,286047000.5,N
1705947795.4,286047002.0,N
1705947815.3,286047005.4,Y
1705947835.1,286047003.0,P
1705947855.9,286047003.1,N
1705947875.7,286047004.8,P
1705947895.5,286047004.1,N
1705947915.4,286047002.1,N
1705947935.2,286047002.5,N
1705947955.1,286047002.7,N
1705947956.0,286047002.7,N
1705947975.8,286047002.8,N
1705947995.6,286047000.0,N
1705948015.5,286047002.6,N
1705948035.3,286047000.3,N
1705948055.2,286047000.0,N
1705948075.9,286046998.5,N
1705948095.7,286047001.2,N
1705948115.6,286046999.1,N
1705948135.4,286046999.3,N
1705948155.2,286046996.6,N
1705948175.1,286046996.9,N
1705948176.0,286046996.9,N
1705948195.8,286046999.6,N
1705948215.4,286046999.1,N
1705948235.2,286046999.0,N
1705948255.0,286046998.4,N
1705948255.9,286046998.4,N
1705948275.8,286046999.0,N
1705948295.6,286046996.7,N
1705948315.4,286046996.7,N
1705948335.3,286046996.7,N
1705948355.1,286046999.5,N
1705948375.9,286046997.7,N
1705948395.7,286046999.4,N
1705948415.5,286046997.4,N
1705948435.4,286046999.6,N
1705948455.2,286046996.9,N
1705948475.0,286046996.7,N
1705948475.9,286046996.7,N
1705948495.8,286046998.8,N
1705948515.6,286046996.8,N
1705948535.5,286046997.5,N
1705948555.3,286046996.7,N
1705948575.1,286046996.7,N
1705948595.9,286046995.1,Y
1705948615.7,286046999.5,P
1705948635.6,286046996.6,P
1705948655.4,286046996.9,N
1705948675.2,286046998.2,N
1705948695.1,286047000.6,N
1705948696.0,286047000.6,N
1705948715.8,286047002.2,N
1705948735.7,286047001.8,N
1705948755.5,286047000.4,N
1705948775.3,286047000.7,N
1705948795.2,286046998.6,N
1705948815.0,286046998.5,N
1705948815.9,286046998.5,N
1705948835.8,286047000.9,N
1705948855.6,286047000.4,N
1705948875.4,286047000.1,N
1705948895.3,286047000.9,N
1705948915.1,286047000.1,N
1705948935.8,286046998.4,N
1705948955.7,286047000.4,N
1705948975.5,286047001.3,N
1705948995.4,286047003.9,N
1705949015.2,286047001.5,N
1705949035.0,286047000.4,N
1705949035.9,286047000.4,N
1705949055.8,286047000.1,N
1705949075.6,286047002.4,N
1705949095.5,286047002.1,N
1705949115.3,286047000.9,N
1705949135.1,286047002.4,N
1705949155.9,286047002.7,N
1705949175.7,286047002.7,N
1705949195.6,286047002.3,N
1705949215.4,286047003.9,N
1705949235.2,286047003.3,N
1705949255.1,286047004.4,N
1705949256.0,286047004.4,N
1705949275.8,286047004.2,N
1705949295.6,286047003.0,N
1705949315.5,286047001.8,N
1705949335.3,286047001.8,N
1705949355.2,286047001.9,N
1705949375.9,286046999.9,N
1705949395.7,286047000.5,N
1705949415.6,286047000.7,N
1705949435.4,286047000.9,N
1705949455.2,286047001.9,N
1705949475.1,286047001.3,N
1705949476.0,286047001.3,N
1705949495.8,286047001.7,N
1705949515.7,286047001.7,N
1705949535.5,286047000.1,N
1705949555.3,286047000.4,N
1705949575.2,286047002.7,N
1705949595.0,286047002.4,N
1705949595.9,286047002.4,N
1705949615.8,286047001.5,N
1705949635.6,286047002.3,N
1705949655.4,286046999.8,N
1705949675.3,286047002.7,N
1705949695.1,286047000.1,N
1705949715.8,286046999.8,N
1705949735.7,286047002.7,N
1705949755.5,286047001.9,N
1705949775.4,286047001.8,N
1705949795.2,286047001.5,N
1705949815.0,286047001.7,N
1705949815.9,286047001.7,N
1705949835.8,286047001.6,N
1705949855.6,286047002.1,N
1705949875.5,286047002.1,N
1705949895.3,286047001.8,N
1705949915.1,286047002.0,N
1705949935.9,286047003.5,Y
1705949955.7,286047002.1,P
1705949975.6,286047002.2,P
1705949995.4,286047002.8,P
